Location: Stonelick Lake State Park
(39.2170°N, 84.0850°W)
Time: 20:45:33
(UTC-05:00)

Amateur Radio Satellites - All Passes

Search period start: 01 February 2015 20:15
Search period end: 02 February 2015 20:15
Location: Stonelick Lake State Park, 39.2170°N, 84.0850°W

Satellite Date Start Highest point End Downlink Frequencies (MHz)
Time Altitude Azimuth
AAUSAT CUBESAT 2 01 Feb 20:37:35 20:41:34 43° 73° (ENE) 20:45:35 437.432
CANX-2 01 Feb 20:39:45 20:44:03 86° 76° (ENE) 20:48:21 2200.000
ZACube-1 01 Feb 20:44:29 20:46:48 14° 66° (ENE) 20:49:20 437.345
DOVE 4 01 Feb 20:45:35 20:50:37 64° 75° (ENE) 20:55:54 437.250
DX 1 01 Feb 20:47:00 20:49:47 17° 66° (ENE) 20:52:44 434.975-435.025
GOMX 1 01 Feb 20:51:18 20:56:26 84° 256° (WSW) 21:01:55 467.674
CUBEBUG 2 01 Feb 20:52:06 20:55:55 25° 69° (ENE) 20:59:50 437.445
FUNcube-1 01 Feb 20:54:23 20:57:21 18° 67° (ENE) 21:00:30 145.935
CUTE 1.7 + AOD 2 01 Feb 21:03:27 21:07:40 55° 260° (W) 21:11:53 437.475
ISS 01 Feb 21:05:12 21:08:27 79° 322° (NW) 21:11:45 145.825
BRITE-PL 01 Feb 21:16:14 21:20:57 35° 266° (W) 21:25:56 437.365/2234.400
Oscar 11 01 Feb 21:18:22 21:22:40 63° 75° (ENE) 21:26:59 145.826/435.025
UWE-3 01 Feb 21:23:17 21:27:42 43° 72° (ENE) 21:32:10 435.000/436.395/437.385
SEEDS 01 Feb 21:29:07 21:32:59 33° 264° (W) 21:36:49 437.485
AISAT 01 Feb 21:29:32 21:32:38 19° 67° (ENE) 21:35:51 437.250
YUBILEINY 01 Feb 21:30:52 21:38:00 26° 293° (WNW) 21:44:54 435.215
HO-68 01 Feb 21:36:00 21:42:32 36° 263° (W) 21:48:58 435.675
CINEMA 3 01 Feb 21:41:24 21:46:19 62° 260° (W) 21:51:21 145.822/145.860
DELFI C3 01 Feb 21:45:59 21:50:04 76° 258° (WSW) 21:54:09 145.870
ESTCUBE 1 01 Feb 21:46:14 21:47:58 12° 64° (ENE) 21:49:56 437.505/2401.250
COMPASS 1 01 Feb 21:50:36 21:54:01 23° 266° (W) 21:57:20 437.405
HUMSAT D 01 Feb 21:51:16 21:55:16 37° 72° (ENE) 21:59:19 437.325/437.525
CUBEBUG 1 01 Feb 21:53:26 21:55:24 13° 65° (ENE) 21:57:35 437.445
VELOX 1 01 Feb 21:54:43 21:58:40 34° 71° (ENE) 22:02:43 145.980
UKube-1 01 Feb 21:55:49 22:00:09 86° 256° (WSW) 22:04:32 .
AIST 1 01 Feb 22:04:28 22:08:32 37° 77° (ENE) 22:12:38
AAUSAT CUBESAT 2 01 Feb 22:15:07 22:17:32 14° 270° (W) 22:19:43 437.432
ZACube-1 01 Feb 22:18:12 22:22:45 59° 260° (W) 22:27:20 437.345
DX 1 01 Feb 22:21:39 22:25:46 41° 261° (W) 22:29:55 434.975-435.025
DOVE 4 01 Feb 22:25:59 22:28:58 15° 273° (W) 22:31:44 437.250
50 SAT 01 Feb 22:26:42 22:30:48 71° 76° (ENE) 22:34:56 437.505
CUBEBUG 2 01 Feb 22:28:09 22:32:29 33° 265° (W) 22:36:48 437.445
FUNcube-1 01 Feb 22:28:58 22:33:24 45° 262° (W) 22:37:50 145.935
UNISAT 6 01 Feb 22:39:24 22:43:12 29° 95° (E) 22:46:59 437.425
ISS 01 Feb 22:43:15 22:45:23 16° 341° (NNW) 22:47:30 145.825
NANOSAT C BR1 01 Feb 22:45:24 22:48:27 19° 93° (E) 22:51:36 145.865
Oscar 11 01 Feb 22:58:19 22:59:21 10° 272° (W) 23:00:06 145.826/435.025
SPROUT 01 Feb 22:58:31 23:01:06 16° 67° (ENE) 23:03:52 437.525
BUGSAT 1 01 Feb 23:00:47 23:04:07 22° 94° (E) 23:07:30 437.445
UWE-3 01 Feb 23:01:09 23:04:29 18° 269° (W) 23:07:39 435.000/436.395/437.385
QB50P2 01 Feb 23:01:30 23:05:16 30° 96° (E) 23:09:04 145.880/145.840
AISAT 01 Feb 23:04:50 23:09:01 39° 262° (W) 23:13:12 437.250
QB50P1 01 Feb 23:09:16 23:13:14 36° 97° (E) 23:17:13 145.935-145.965
ANTELSAT 01 Feb 23:15:17 23:19:43 76° 102° (ESE) 23:24:01 437.575/2403.000
ESTCUBE 1 01 Feb 23:19:57 23:24:23 64° 259° (W) 23:28:51 437.505/2401.250
TIGRISAT 01 Feb 23:20:40 23:25:07 85° 102° (ESE) 23:29:25 435.000
TISAT 1 01 Feb 23:20:54 23:24:27 27° 70° (ENE) 23:28:06 437.305
POLYITAN 1 01 Feb 23:26:33 23:30:50 59° 100° (E) 23:35:04 437.675
CUBEBUG 1 01 Feb 23:27:05 23:31:21 56° 260° (W) 23:35:41 437.445
HUMSAT D 01 Feb 23:28:10 23:31:15 18° 268° (W) 23:34:10 437.325/437.525
VELOX 1 01 Feb 23:31:58 23:35:22 21° 267° (W) 23:38:42 145.980
AIST 1 01 Feb 23:43:05 23:45:57 17° 272° (W) 23:48:38
GONETS M04 01 Feb 23:43:49 23:47:58 15° 79° (E) 23:52:43
POPSAT HIP 1 01 Feb 23:44:23 23:48:43 87° 278° (W) 23:53:00 437.405
DUCHIFAT 1 01 Feb 23:44:38 23:48:58 87° 281° (W) 23:53:14 145.980
SWISSCUBE 02 Feb 00:00:17 00:02:33 14° 64° (ENE) 00:05:03 437.505
BEESAT 02 Feb 00:14:24 00:17:28 18° 66° (ENE) 00:20:42 436.000
UNISAT 6 02 Feb 00:16:22 00:19:55 24° 291° (WNW) 00:23:19 437.425
ITUPSAT 1 02 Feb 00:20:30 00:23:52 20° 67° (ENE) 00:27:23 437.325
NANOSAT C BR1 02 Feb 00:20:33 00:24:27 34° 289° (WNW) 00:28:17 145.865
SPROUT 02 Feb 00:32:46 00:36:54 44° 262° (W) 00:41:03 437.525
BUGSAT 1 02 Feb 00:35:53 00:39:39 30° 289° (WNW) 00:43:20 437.445
QB50P2 02 Feb 00:37:41 00:41:04 22° 291° (WNW) 00:44:20 145.880/145.840
QB50P1 02 Feb 00:45:50 00:48:55 19° 292° (WNW) 00:51:52 145.935-145.965
O/OREOS (USA 219) 02 Feb 00:55:55 00:59:30 23° 58° (ENE) 01:03:12 437.305
TISAT 1 02 Feb 00:56:47 01:00:17 24° 266° (W) 01:03:43 437.305
POLYITAN 1 02 Feb 01:04:26 01:06:20 12° 295° (WNW) 01:08:01 437.675
KKS-1 02 Feb 01:08:39 01:10:10 12° 64° (ENE) 01:11:56 437.445
BEESAT 2 02 Feb 01:15:59 01:19:43 35° 115° (ESE) 01:23:33 435.950
BEESAT 3 02 Feb 01:25:39 01:29:37 52° 117° (ESE) 01:33:40 437.485
AIST 2 02 Feb 01:33:34 01:36:50 22° 112° (ESE) 01:40:14 435.215
GONETS M04 02 Feb 01:34:55 01:43:41 85° 95° (E) 01:52:27
SWISSCUBE 02 Feb 01:35:15 01:39:57 64° 258° (WSW) 01:44:42 437.505
BEESAT 02 Feb 01:50:24 01:55:00 48° 261° (W) 01:59:37 436.000
M-CUBED/EXP-1 PRIME 02 Feb 01:55:21 01:56:53 12° 64° (ENE) 01:58:33 437.505
ITUPSAT 1 02 Feb 01:57:01 02:01:32 42° 262° (W) 02:06:02 437.325
ISS 02 Feb 01:58:16 02:00:31 17° 21° (NNE) 02:02:47 145.825
Oscar 19 02 Feb 02:13:03 02:18:14 84° 103° (ESE) 02:23:21 437.125/150
Gurwin Techsat 1B 02 Feb 02:20:22 02:24:30 23° 93° (E) 02:28:45 435.225
AUBIESAT-1 02 Feb 02:23:30 02:26:33 23° 67° (ENE) 02:29:29 437.475
STARS 02 Feb 02:26:23 02:30:42 52° 73° (ENE) 02:35:04 437.465
O/OREOS (USA 219) 02 Feb 02:34:51 02:39:03 35° 255° (WSW) 02:43:12 437.305
ITAMSAT 1 02 Feb 02:38:16 02:43:21 49° 99° (E) 02:48:25 435.822/435.867
KKS-1 02 Feb 02:41:52 02:46:20 68° 259° (WSW) 02:50:50 437.445
HORYU 2 02 Feb 02:51:42 02:53:00 11° 89° (E) 02:54:34 437.375
BEESAT 2 02 Feb 02:54:43 02:58:03 22° 312° (NW) 03:01:20 435.950
PCSat 02 Feb 03:05:06 03:09:37 29° 109° (ESE) 03:14:16 145.827
BEESAT 3 02 Feb 03:05:21 03:08:06 17° 316° (NW) 03:10:46 437.485
DANDE 02 Feb 03:05:50 03:12:22 27° 86° (E) 03:19:16 436.750
AIST 2 02 Feb 03:11:23 03:15:18 34° 308° (NW) 03:19:14 435.215
CUSAT 1 02 Feb 03:12:11 03:19:20 34° 89° (E) 03:26:37 437.405
MOZHAYETS 4 02 Feb 03:17:26 03:18:35 11° 64° (ENE) 03:20:00
M-CUBED/EXP-1 PRIME 02 Feb 03:27:51 03:31:40 45° 255° (WSW) 03:35:12 437.505
ISS 02 Feb 03:34:05 03:37:23 89° 226° (SW) 03:40:41 145.825
GONETS M04 02 Feb 03:35:43 03:41:51 19° 298° (WNW) 03:47:32
Oscar 19 02 Feb 03:54:56 03:56:57 12° 298° (WNW) 03:58:41 437.125/150
AUBIESAT-1 02 Feb 03:58:20 04:01:27 22° 259° (WSW) 04:04:19 437.475
Gurwin Techsat 1B 02 Feb 03:59:41 04:04:41 42° 289° (WNW) 04:09:37 435.225
RS-15 02 Feb 04:03:59 04:14:13 50° 112° (ESE) 04:24:37 29.354- 29.394
STARS 02 Feb 04:05:14 04:07:34 13° 270° (W) 04:09:40 437.465
AO-7 02 Feb 04:11:58 04:19:40 41° 98° (E) 04:27:26 29.400- 29.500
ITAMSAT 1 02 Feb 04:18:41 04:22:32 20° 295° (WNW) 04:26:12 435.822/435.867
HORYU 2 02 Feb 04:25:47 04:30:11 60° 286° (WNW) 04:34:31 437.375
DANDE 02 Feb 04:46:50 04:55:16 71° 282° (WNW) 05:03:49 436.750
PCSat 02 Feb 04:47:51 04:52:55 38° 306° (NW) 04:57:58 145.827
MOZHAYETS 4 02 Feb 04:50:43 04:55:18 74° 259° (W) 04:59:53
CUSAT 1 02 Feb 04:53:55 05:02:07 56° 285° (WNW) 05:10:09 437.405
PRISM 02 Feb 05:12:58 05:15:40 18° 67° (ENE) 05:18:30 437.425
CUBESAT XI-V 02 Feb 05:19:59 05:22:48 17° 66° (ENE) 05:25:48 437.345
JAS-2 02 Feb 05:22:33 05:28:28 78° 103° (ESE) 05:35:11 435.910
STRAND 1 02 Feb 05:30:19 05:33:35 18° 65° (ENE) 05:37:02 437.568
CUTE-I 02 Feb 05:35:09 05:36:55 12° 87° (E) 05:39:02 437.470
YUBILEINY 02 Feb 05:43:48 05:51:10 30° 68° (ENE) 05:58:45 435.215
AO-7 02 Feb 06:04:45 06:12:32 44° 296° (WNW) 06:20:09 29.400- 29.500
RS-15 02 Feb 06:16:13 06:26:42 48° 314° (NW) 06:37:15 29.354- 29.394
PHONESAT 2.4 02 Feb 06:33:32 06:35:10 13° 145° (SE) 06:36:55 2401.200-2431.200
DANDE 02 Feb 06:35:15 06:40:21 16° 302° (WNW) 06:44:53 436.750
CUSAT 1 02 Feb 06:44:21 06:47:03 11° 304° (NW) 06:49:03 437.405
VERMONT LUNAR 02 Feb 06:45:30 06:48:26 26° 152° (SSE) 06:51:23 437.305
PRISM 02 Feb 06:47:12 06:50:59 35° 262° (W) 06:54:45 437.425
Cubesat XI-IV 02 Feb 06:53:37 06:59:00 71° 102° (ESE) 07:04:23 437.490
CUBESAT XI-V 02 Feb 06:55:29 06:59:55 47° 261° (W) 07:04:24 437.345
STRAND 1 02 Feb 07:07:25 07:12:25 54° 260° (W) 07:17:26 437.568
JAS-2 02 Feb 07:09:34 07:13:11 16° 296° (WNW) 07:16:44 435.910
CUTE-I 02 Feb 07:12:20 07:17:44 79° 286° (WNW) 07:23:07 437.470
YUBILEINY 02 Feb 07:39:59 07:48:34 58° 268° (W) 07:57:05 435.215
BRITE-PL 02 Feb 07:47:13 07:48:04 10° 84° (E) 07:49:19 437.365/2234.400
PHONESAT 2.4 02 Feb 08:09:46 08:13:16 53° 159° (SSE) 08:16:48 2401.200-2431.200
VERMONT LUNAR 02 Feb 08:22:49 08:26:17 88° 168° (SSE) 08:29:47 437.305
SO-50 02 Feb 08:24:32 08:25:51 11° 108° (ESE) 08:27:28 436.795
CANX-2 02 Feb 08:27:42 08:30:13 16° 91° (E) 08:32:53 2200.000
RS-15 02 Feb 08:35:22 08:42:52 20° 345° (NNW) 08:50:18 29.354- 29.394
Cubesat XI-IV 02 Feb 08:35:27 08:38:35 15° 297° (WNW) 08:41:28 437.490
DOVE 4 02 Feb 08:47:31 08:51:07 20° 90° (E) 08:54:44 437.250
CUTE 1.7 + AOD 2 02 Feb 08:50:24 08:53:56 26° 95° (E) 08:57:30 437.475
GOMX 1 02 Feb 08:55:12 09:00:01 35° 94° (E) 09:04:38 467.674
CUTE-I 02 Feb 08:56:05 08:57:03 10° 300° (WNW) 08:57:42 437.470
HO-68 02 Feb 09:03:59 09:10:49 47° 99° (E) 09:17:41 435.675
Oscar 11 02 Feb 09:08:57 09:10:34 12° 89° (E) 09:12:26 145.826/435.025
SEEDS 02 Feb 09:14:30 09:18:29 42° 98° (E) 09:22:28 437.485
BRITE-PL 02 Feb 09:21:52 09:27:32 90° 52° (NE) 09:32:51 437.365/2234.400
DELFI C3 02 Feb 09:28:35 09:31:00 16° 91° (E) 09:33:35 145.870
COMPASS 1 02 Feb 09:34:32 09:38:40 60° 101° (E) 09:42:45 437.405
BEESAT 2 02 Feb 09:37:11 09:40:10 19° 46° (NE) 09:43:12 435.950
UNISAT 6 02 Feb 09:37:28 09:41:17 26° 69° (ENE) 09:45:09 437.425
CINEMA 3 02 Feb 09:38:22 09:42:42 35° 96° (E) 09:46:52 145.822/145.860
NANOSAT C BR1 02 Feb 09:38:22 09:40:29 14° 66° (ENE) 09:42:49 145.865
UKube-1 02 Feb 09:45:50 09:48:39 17° 92° (E) 09:51:37 .
BEESAT 3 02 Feb 09:46:25 09:49:52 25° 49° (NE) 09:53:20 437.485
PHONESAT 2.4 02 Feb 09:48:13 09:51:49 72° 356° (N) 09:55:26 2401.200-2431.200
BUGSAT 1 02 Feb 09:51:20 09:53:27 14° 66° (ENE) 09:55:47 437.445
QB50P2 02 Feb 09:54:08 09:57:19 21° 69° (ENE) 10:00:38 145.880/145.840
AIST 2 02 Feb 09:56:45 09:59:00 14° 42° (NE) 10:01:24 435.215
AAUSAT CUBESAT 2 02 Feb 09:57:23 10:01:33 83° 283° (WNW) 10:05:41 437.432
VERMONT LUNAR 02 Feb 10:01:00 10:04:29 70° 4° (N) 10:07:58 437.305
SO-50 02 Feb 10:01:17 10:05:49 73° 303° (WNW) 10:10:33 436.795
QB50P1 02 Feb 10:01:34 10:05:01 25° 69° (ENE) 10:08:35 145.935-145.965
CANX-2 02 Feb 10:02:26 10:06:24 39° 287° (WNW) 10:10:19 2200.000
ZACube-1 02 Feb 10:08:51 10:12:37 28° 95° (E) 10:16:20 437.345
DX 1 02 Feb 10:11:06 10:15:08 35° 97° (E) 10:19:10 434.975-435.025
ANTELSAT 02 Feb 10:12:53 10:17:31 60° 74° (ENE) 10:22:08 437.575/2403.000
TIGRISAT 02 Feb 10:17:54 10:22:35 66° 75° (ENE) 10:27:14 435.000
POLYITAN 1 02 Feb 10:18:47 10:22:47 39° 72° (ENE) 10:26:51 437.675
FUNcube-1 02 Feb 10:19:04 10:23:06 36° 97° (E) 10:27:03 145.935
CUBEBUG 2 02 Feb 10:20:28 10:24:55 57° 100° (E) 10:29:11 437.445
DOVE 4 02 Feb 10:24:19 10:29:11 43° 288° (WNW) 10:33:44 437.250
CUTE 1.7 + AOD 2 02 Feb 10:26:22 10:29:49 24° 290° (WNW) 10:33:10 437.475
GOMX 1 02 Feb 10:33:29 10:38:01 28° 292° (WNW) 10:42:15 467.674
AIST 1 02 Feb 10:33:38 10:36:57 23° 90° (E) 10:40:23
DUCHIFAT 1 02 Feb 10:36:04 10:40:15 60° 75° (ENE) 10:44:30 145.980
POPSAT HIP 1 02 Feb 10:36:06 10:40:19 61° 75° (ENE) 10:44:36 437.405
Oscar 11 02 Feb 10:42:58 10:47:11 53° 286° (WNW) 10:51:22 145.826/435.025
UWE-3 02 Feb 10:51:01 10:55:28 76° 284° (WNW) 10:59:45 435.000/436.395/437.385
SEEDS 02 Feb 10:51:27 10:54:01 16° 293° (WNW) 10:56:26 437.485
HO-68 02 Feb 10:52:06 10:58:22 33° 296° (WNW) 11:04:30 435.675
RS-15 02 Feb 10:52:58 11:00:58 22° 21° (NNE) 11:09:25 29.354- 29.394
AISAT 02 Feb 10:56:45 11:01:03 42° 98° (E) 11:05:20 437.250
DELFI C3 02 Feb 11:02:42 11:06:26 36° 287° (WNW) 11:10:08 145.870
BRITE-PL 02 Feb 11:02:46 11:05:15 13° 299° (WNW) 11:07:24 437.365/2234.400
NANOSAT C BR1 02 Feb 11:11:49 11:15:59 51° 261° (W) 11:20:12 145.865
HUMSAT D 02 Feb 11:12:18 11:16:32 83° 102° (ESE) 11:20:41 437.325/437.525
COMPASS 1 02 Feb 11:12:33 11:13:56 11° 295° (WNW) 11:15:06 437.405
UNISAT 6 02 Feb 11:13:45 11:17:58 31° 264° (W) 11:22:07 437.425
ESTCUBE 1 02 Feb 11:14:11 11:18:05 28° 95° (E) 11:22:03 437.505/2401.250
BEESAT 2 02 Feb 11:14:38 11:18:38 44° 243° (WSW) 11:22:32 435.950
CINEMA 3 02 Feb 11:16:00 11:19:43 22° 293° (WNW) 11:23:11 145.822/145.860
CUBEBUG 1 02 Feb 11:17:29 11:21:20 28° 95° (E) 11:25:13 437.445
UKube-1 02 Feb 11:20:56 11:25:01 39° 288° (WNW) 11:29:04 .
VELOX 1 02 Feb 11:22:26 11:26:58 81° 103° (ESE) 11:31:27 145.980
BEESAT 3 02 Feb 11:24:22 11:28:02 30° 246° (WSW) 11:31:35 437.485
BUGSAT 1 02 Feb 11:24:38 11:28:36 46° 261° (W) 11:32:39 437.445
PHONESAT 2.4 02 Feb 11:26:51 11:30:28 89° 205° (SSW) 11:34:07 2401.200-2431.200
QB50P2 02 Feb 11:29:13 11:33:05 32° 264° (W) 11:36:57 145.880/145.840
AIST 2 02 Feb 11:33:54 11:38:10 71° 242° (WSW) 11:42:21 435.215
QB50P1 02 Feb 11:37:11 11:40:51 27° 265° (W) 11:44:29 145.935-145.965
VERMONT LUNAR 02 Feb 11:39:09 11:42:34 54° 201° (SSW) 11:46:00 437.305
50 SAT 02 Feb 11:42:18 11:46:16 57° 285° (WNW) 11:50:11 437.505
ZACube-1 02 Feb 11:45:22 11:48:54 23° 291° (WNW) 11:52:16 437.345
SO-50 02 Feb 11:45:34 11:47:20 12° 324° (NW) 11:48:57 436.795
GONETS M04 02 Feb 11:46:52 11:54:50 40° 72° (ENE) 12:02:55
DX 1 02 Feb 11:47:53 11:51:12 21° 292° (WNW) 11:54:24 434.975-435.025
ANTELSAT 02 Feb 11:52:26 11:54:46 13° 271° (W) 11:56:50 437.575/2403.000
Oscar 19 02 Feb 11:52:48 11:55:09 14° 63° (ENE) 11:57:45 437.125/150
PCSat 02 Feb 11:53:50 11:57:53 21° 47° (NE) 12:02:00 145.827
POLYITAN 1 02 Feb 11:56:02 11:58:56 17° 268° (W) 12:01:42 437.675
FUNcube-1 02 Feb 11:56:07 11:59:13 19° 293° (WNW) 12:02:09 145.935
TIGRISAT 02 Feb 11:57:59 11:59:50 12° 272° (W) 12:01:24 435.000
CUBEBUG 2 02 Feb 11:58:55 12:01:09 13° 296° (WNW) 12:03:09 437.445
AIST 1 02 Feb 12:10:59 12:14:34 25° 286° (WNW) 12:18:06
DUCHIFAT 1 02 Feb 12:15:23 12:16:36 11° 272° (W) 12:17:33 145.980
POPSAT HIP 1 02 Feb 12:15:34 12:16:44 11° 272° (W) 12:17:36 437.405
SPROUT 02 Feb 12:20:43 12:24:40 34° 97° (E) 12:28:38 437.525
AISAT 02 Feb 12:34:16 12:37:23 18° 294° (WNW) 12:40:21 437.250
TISAT 1 02 Feb 12:41:50 12:46:05 57° 100° (E) 12:50:18 437.305
ESTCUBE 1 02 Feb 12:51:07 12:54:54 26° 291° (WNW) 12:58:37 437.505/2401.250
CUBEBUG 1 02 Feb 12:53:57 12:57:38 25° 291° (WNW) 13:01:13 437.445
RS-15 02 Feb 13:05:30 13:16:38 58° 50° (NE) 13:28:19 29.354- 29.394
PHONESAT 2.4 02 Feb 13:05:40 13:08:49 28° 208° (SSW) 13:11:58 2401.200-2431.200
VERMONT LUNAR 02 Feb 13:18:28 13:20:14 13° 214° (SW) 13:21:54 437.305
AO-7 02 Feb 13:24:44 13:26:24 11° 46° (NE) 13:28:36 29.400- 29.500
Oscar 19 02 Feb 13:28:44 13:33:56 76° 258° (WSW) 13:39:10 437.125/150
PCSat 02 Feb 13:36:24 13:41:46 60° 245° (WSW) 13:47:04 145.827
SWISSCUBE 02 Feb 13:36:57 13:41:20 35° 97° (E) 13:45:44 437.505
Gurwin Techsat 1B 02 Feb 13:40:18 13:44:59 34° 69° (ENE) 13:49:45 435.225
GONETS M04 02 Feb 13:43:43 13:51:45 43° 272° (W) 13:59:41
HORYU 2 02 Feb 13:50:22 13:51:15 11° 63° (ENE) 13:52:23 437.375
BEESAT 02 Feb 13:51:41 13:56:17 46° 99° (E) 14:00:53 436.000
DANDE 02 Feb 13:53:46 13:55:58 12° 55° (NE) 13:58:14 436.750
ITAMSAT 1 02 Feb 13:55:10 14:00:17 68° 74° (ENE) 14:05:28 435.822/435.867
SPROUT 02 Feb 13:57:19 14:00:36 20° 292° (WNW) 14:03:44 437.525
CUSAT 1 02 Feb 13:57:37 14:00:25 14° 58° (ENE) 14:03:05 437.405
ITUPSAT 1 02 Feb 13:58:27 14:03:10 54° 100° (E) 14:07:52 437.325
TISAT 1 02 Feb 14:19:30 14:21:29 13° 295° (WNW) 14:23:15 437.305
STARS 02 Feb 14:20:29 14:21:06 10° 88° (E) 14:22:02 437.465
KKS-1 02 Feb 14:34:46 14:38:27 25° 95° (E) 14:42:11 437.445
O/OREOS (USA 219) 02 Feb 15:07:00 15:10:51 29° 104° (ESE) 15:14:48 437.305
AO-7 02 Feb 15:09:30 15:17:28 52° 66° (ENE) 15:25:31 29.400- 29.500
SWISSCUBE 02 Feb 15:15:13 15:19:03 24° 292° (WNW) 15:22:46 437.505
RS-15 02 Feb 15:18:20 15:28:53 43° 250° (WSW) 15:39:38 29.354- 29.394
Gurwin Techsat 1B 02 Feb 15:20:24 15:25:00 29° 265° (W) 15:29:33 435.225
HORYU 2 02 Feb 15:22:52 15:27:23 76° 259° (W) 15:31:54 437.375
BEESAT 02 Feb 15:30:30 15:33:50 18° 294° (WNW) 15:37:00 436.000
DANDE 02 Feb 15:34:52 15:40:52 77° 262° (W) 15:45:12 436.750
JAS-2 02 Feb 15:35:46 15:40:00 25° 68° (ENE) 15:44:15 435.910
ITUPSAT 1 02 Feb 15:37:39 15:40:41 16° 295° (WNW) 15:43:32 437.325
ITAMSAT 1 02 Feb 15:37:45 15:40:23 13° 271° (W) 15:42:44 435.822/435.867
CUSAT 1 02 Feb 15:39:03 15:44:24 53° 267° (W) 15:48:21 437.405
AUBIESAT-1 02 Feb 15:40:18 15:42:46 19° 100° (E) 15:45:25 437.475
STARS 02 Feb 15:53:43 15:58:09 66° 286° (WNW) 16:02:31 437.465
KKS-1 02 Feb 16:11:13 16:15:06 29° 290° (WNW) 16:18:54 437.445
Cubesat XI-IV 02 Feb 16:38:06 16:40:30 14° 62° (ENE) 16:43:12 437.490
M-CUBED/EXP-1 PRIME 02 Feb 16:45:22 16:48:36 45° 290° (WNW) 16:51:58 437.505
O/OREOS (USA 219) 02 Feb 16:46:30 16:50:16 25° 301° (WNW) 16:54:02 437.305
MOZHAYETS 4 02 Feb 16:47:26 16:51:20 28° 95° (E) 16:55:18
SO-50 02 Feb 16:55:02 16:57:10 13° 37° (NE) 16:59:29 436.795
CUTE-I 02 Feb 16:55:17 16:58:54 20° 65° (ENE) 17:02:42 437.470
AO-7 02 Feb 17:03:03 17:10:33 35° 264° (W) 17:17:56 29.400- 29.500
JUGNU 02 Feb 17:06:23 17:07:35 11° 178° (S) 17:08:49 437.505
AUBIESAT-1 02 Feb 17:15:01 17:17:43 22° 294° (WNW) 17:20:25 437.475
JAS-2 02 Feb 17:20:08 17:25:04 35° 263° (W) 17:29:48 435.910
Cubesat XI-IV 02 Feb 18:14:41 18:20:00 79° 257° (WSW) 18:25:24 437.490
MOZHAYETS 4 02 Feb 18:24:40 18:28:32 27° 290° (WNW) 18:32:19
PRISM 02 Feb 18:30:55 18:34:40 32° 97° (E) 18:38:27 437.425
CUTE-I 02 Feb 18:33:25 18:38:37 54° 260° (W) 18:43:51 437.470
SO-50 02 Feb 18:33:41 18:38:38 75° 56° (ENE) 18:43:33 436.795
YUBILEINY 02 Feb 18:43:44 18:51:12 35° 86° (E) 18:58:53 435.215
CUBESAT XI-V 02 Feb 18:53:10 18:57:41 45° 98° (E) 19:02:13 437.345
BRITE-PL 02 Feb 18:56:29 18:58:21 12° 60° (ENE) 19:00:32 437.365/2234.400
STRAND 1 02 Feb 19:18:55 19:23:59 55° 100° (E) 19:29:02 437.568
CANX-2 02 Feb 19:21:34 19:22:45 11° 65° (ENE) 19:24:10 2200.000
HO-68 02 Feb 19:31:54 19:37:58 32° 64° (ENE) 19:44:11 435.675
CUTE 1.7 + AOD 2 02 Feb 19:43:11 19:46:02 18° 68° (ENE) 19:48:59 437.475
SRMSAT 02 Feb 19:43:59 19:45:20 11° 184° (S) 19:46:39 437.500
DOVE 4 02 Feb 19:51:54 19:55:34 20° 66° (ENE) 19:59:28 437.250
GOMX 1 02 Feb 20:01:42 20:06:19 34° 70° (ENE) 20:11:14 467.674
SEEDS 02 Feb 20:06:06 20:09:38 27° 71° (ENE) 20:13:15 437.485
PRISM 02 Feb 20:06:57 20:10:01 20° 292° (WNW) 20:12:59 437.425
